Islip, NY

7:22 PM EDT on April 28, 2017 (GMT -0400)
Long Island Mac Arthur

Weather History for KISP - June, 2013

Change the Weather History Date:

Wednesday, June 19, 2013

  Actual Average Record
Temperature  
Mean Temperature 68 °F 70 °F  
Max Temperature 77 °F 78 °F 96 °F (1994)
Min Temperature 59 °F 62 °F 49 °F (1986)
Degree Days  
Heating Degree Days 0 1  
Month to date heating degree days 12 34  
Since 1 June heating degree days 12 34  
Since 1 July heating degree days 5102 5424  
Cooling Degree Days 3 5  
Month to date cooling degree days 61 67  
Year to date cooling degree days 93 91  
Since 1 June cooling degree days 61 67  
Growing Degree Days 17 (Base 50)    
Moisture  
Dew Point 54 °F    
Average Humidity 63    
Maximum Humidity 93    
Minimum Humidity 33    
Precipitation  
Precipitation 0.00 in 0.13 in 1.54 in (1996)
Month to date precipitation 8.02 2.99  
Year to date precipitation 23.37 22.45  
Snow  
Snow 0.00 in 0.00 in - ()
Month to date snowfall 0.0 0.0  
Since 1 July snowfall 46.9 24.8  
Snow Depth 0.00 in    
Sea Level Pressure  
Sea Level Pressure 29.97 in    
Wind  
Wind Speed 9 mph (North)    
Max Wind Speed 16 mph    
Max Gust Speed 22 mph    
Visibility 10 miles    
Events      
T = Trace of Precipitation, MM = Missing Value Source: NWS Daily Summary

Daily Weather History Graph

Daily Weather History Graph

Search for Another Location

Airport or City:

Trip Planner

Search our weather history database for the weather conditions in past years. The results will help you decide how hot, cold, wet, or windy it might be!

Date:

Astronomy

Jun. 19, 2013 Rise Set
Actual Time 5:20 AM EDT 8:26 PM EDT
Civil Twilight 4:47 AM EDT 9:00 PM EDT
Nautical Twilight 4:04 AM EDT 9:43 PM EDT
Astronomical Twilight 3:13 AM EDT 10:33 PM EDT
Moon 4:15 PM EDT (6/19) 2:04 AM EDT (6/19)
Length of Visible Light 16h 13m
Length of Day
15h 06m
Waxing Gibbous, 80% of the Moon is Illuminated
Jun 19
Waxing Gibbous
Jun 23
Full
Jun 30
Last Quarter
Jul 8
New
Jul 15
First Quarter

Hourly Weather History & Observations

Time (EDT) Temp. Dew Point Humidity Pressure Visibility Wind Dir Wind Speed Gust Speed Precip Events Conditions
12:17 AM 62.6 °F 59.0 °F 88% 29.87 in 10.0 mi NNE 11.5 mph - N/A   Overcast
12:54 AM 62.6 °F 60.8 °F 94% 29.86 in 10.0 mi NNE 11.5 mph - N/A   Overcast
12:56 AM 63.0 °F 60.1 °F 90% 29.86 in 10.0 mi NNE 12.7 mph - N/A   Overcast
1:20 AM 62.6 °F 60.8 °F 94% 29.86 in 10.0 mi NNE 11.5 mph - N/A   Overcast
1:29 AM 62.6 °F 60.8 °F 94% 29.86 in 10.0 mi NNE 10.4 mph - N/A   Overcast
1:56 AM 63.0 °F 60.1 °F 90% 29.86 in 10.0 mi North 12.7 mph - N/A   Overcast
2:20 AM 62.6 °F 59.0 °F 88% 29.86 in 10.0 mi NNE 10.4 mph - N/A   Overcast
2:29 AM 62.6 °F 59.0 °F 88% 29.86 in 10.0 mi North 13.8 mph - N/A   Overcast
2:56 AM 62.1 °F 57.9 °F 86% 29.87 in 10.0 mi NNE 12.7 mph 19.6 mph N/A   Overcast
3:25 AM 60.8 °F 57.2 °F 88% 29.87 in 10.0 mi North 9.2 mph - N/A   Overcast
3:56 AM 61.0 °F 57.0 °F 87% 29.88 in 10.0 mi North 8.1 mph - N/A   Overcast
4:30 AM 60.8 °F 55.4 °F 82% 29.87 in 10.0 mi North 9.2 mph - N/A   Overcast
4:56 AM 60.1 °F 55.9 °F 86% 29.89 in 10.0 mi North 11.5 mph - N/A   Mostly Cloudy
5:56 AM 59.0 °F 52.0 °F 78% 29.90 in 10.0 mi North 9.2 mph - N/A   Mostly Cloudy
6:56 AM 60.1 °F 54.0 °F 80% 29.93 in 10.0 mi NNE 10.4 mph - N/A   Mostly Cloudy
7:56 AM 62.1 °F 54.0 °F 75% 29.96 in 10.0 mi NNE 11.5 mph - N/A   Mostly Cloudy
8:56 AM 64.0 °F 53.1 °F 67% 29.99 in 10.0 mi NNE 13.8 mph - N/A   Mostly Cloudy
9:56 AM 66.9 °F 53.1 °F 61% 30.00 in 10.0 mi North 13.8 mph - N/A   Scattered Clouds
10:56 AM 69.1 °F 51.1 °F 53% 30.01 in 10.0 mi NE 15.0 mph - N/A   Scattered Clouds
11:56 AM 71.1 °F 50.0 °F 47% 30.02 in 10.0 mi NE 11.5 mph 19.6 mph N/A   Scattered Clouds
12:56 PM 73.0 °F 48.0 °F 41% 30.02 in 10.0 mi NNE 10.4 mph - N/A   Scattered Clouds
1:56 PM 75.0 °F 44.1 °F 33% 30.03 in 10.0 mi NNE 13.8 mph 19.6 mph N/A   Partly Cloudy
2:56 PM 73.9 °F 46.0 °F 37% 30.04 in 10.0 mi North 5.8 mph - N/A   Partly Cloudy
3:56 PM 75.9 °F 48.0 °F 37% 30.04 in 10.0 mi NNW 9.2 mph - N/A   Scattered Clouds
4:56 PM 75.9 °F 48.0 °F 37% 30.04 in 10.0 mi WNW 6.9 mph - N/A   Scattered Clouds
5:56 PM 70.0 °F 54.0 °F 57% 30.05 in 10.0 mi SSW 10.4 mph - N/A   Scattered Clouds
6:56 PM 70.0 °F 54.0 °F 57% 30.06 in 10.0 mi SW 9.2 mph - N/A   Scattered Clouds
7:56 PM 66.9 °F 55.0 °F 66% 30.08 in 10.0 mi SSW 8.1 mph - N/A   Scattered Clouds
8:56 PM 64.0 °F 55.0 °F 73% 30.10 in 10.0 mi SW 5.8 mph - N/A   Scattered Clouds
9:56 PM 62.1 °F 54.0 °F 75% 30.12 in 10.0 mi Calm Calm - N/A   Partly Cloudy
10:56 PM 62.1 °F 54.0 °F 75% 30.14 in 10.0 mi Calm Calm - N/A   Clear
11:56 PM 61.0 °F 53.1 °F 75% 30.16 in 10.0 mi Calm Calm - N/A   Clear